Tracking 35331 objects as of 16-Sep-2026
HD Live streaming from Space Station
objects crossing your sky now

TIGER-7

Track TIGER-7 now!
10-day predictions


NORAD ID: 59141
Int'l Code: 2024-043AV
Launch date: March 4, 2024
Source: Republic of Rwanda (RWA)
Launch site: AIR FORCE WESTERN TEST RANGE (AFWTR)
Your satellite tracking list
Your tracking list is empty




NASA's NSSDC Master Catalog

Two Line Element Set (TLE):
1 59141U 24043AV  26259.24303471  .00012959  00000-0  22755-3 0  9991
2 59141  97.5597  54.5080 0005583 177.8778 182.2498 15.50649422142078
Source of the keplerian elements: AFSPC